Location: Observatoire
(46.1952°N, 5.3391°E)
Time: 00:03:16
(UTC+01:00)

Courier 1B Rocket - Pass Details

Date: 16 February 2026
Orbit: 920 x 1201 km, 28.2° (Epoch: 11 March)

Event Time Altitude Azimuth Distance (km) Brightness Sun altitude
Rises 22:44:16 0° 239° (WSW) 3,624 - -46.4°
Reaches altitude 10° 22:47:58 10° 218° (SW) 2,724 - -46.9°
Maximum altitude 22:51:43 16° 183° (S) 2,374 - -47.4°
Drops below altitude 10° 22:55:36 10° 148° (SSE) 2,836 - -47.9°
Sets 22:59:35 0° 128° (SE) 3,853 - -48.3°
